ATHENA-FIDUS

Last updated on Oct. 24, 2020, 5:54 a.m. UTC

1 39509U 14006B   20297.88452233  .00000139  00000-0  00000-0 0  9995
2 39509   0.0134 262.1565 0001284 288.9227 197.9255  1.00270064 24392
UTC
Height (km)
Latitude
Longitude
Inclination
Orbital Period
UTC large
Height (km)
Speed (km/s)
/
Latitude / Longitude
Inclination (degrees)
Orbital Period (minutes)
Azimuth
Elevation
Range (km)
Doppler Factor
iOS Compass Heading
iOS Angle

Next 30 passes for location: Hong Kong

Rise time Rise Azimuth (degrees) Set time Set Azimuth (degrees) Duration Max altitude (degrees)

No matching passes for this satellites